Torna al catalogo

COSMOS 2614

AttivoMilitareSSO
NORAD 68764·PAYLOAD·🇷🇺 Russia

Lanciato Apr 16, 2026 da Plesetsk Cosmodrome

Loading…

Prossimi Passaggi (prossime 24 ore)

TLE

AggiornatoSource: Space-Track

Epoca: Sep 14, 2026, 18:22 UTC

1 68764U 26083K   26257.76546852  .00001232  00000-0  88715-4 0  9996
2 68764  97.7909  35.8102 0007836  77.2603 282.9499 15.06094789 22682

Traccia COSMOS 2614 in tempo reale con AllMySat

Download on the App Store